Location: Unspecified
(41.5000°N, 0.0000°E)
Time: 10:33:41
(UTC+00:00)

Vanguard 3 - Pass Details

Date: 26 June 2019
Orbit: 508 x 3263 km, 33.3° (Epoch: 16 August)

Event Time Altitude Azimuth Distance (km) Brightness Sun altitude
Rises 11:24:51 0° 251° (WSW) 6,709 11.8 70.2°
Reaches altitude 10° 11:29:59 10° 248° (WSW) 5,346 11.5 70.6°
Maximum altitude 11:43:48 53° 178° (S) 2,063 11.0 71.4°
Drops below altitude 10° 11:51:39 10° 103° (ESE) 3,140 10.4 71.7°
Sets 11:53:55 0° 98° (E) 3,832 10.7 71.8°
